Station SLIM2 - 8577330 - Solomons Island, MD Image indicating link to RSS feed of recent meteorological observations for station SLIM2


Conditions at SLIM2 as of
(3:48 am EDT)
0748 GMT on 05/21/2024:
     

Click on the graph icon in the table below to see a time series plot of the last five days of that observation.

5-day plot - Wind Direction Wind Direction (WDIR): SW ( 220 deg true )
5-day plot - Wind Speed Wind Speed (WSPD): 4.1 kts
5-day plot - Wind Gust Wind Gust (GST): 7.0 kts
5-day plot - Atmospheric Pressure Atmospheric Pressure (PRES):30.00 in
5-day plot - Air Temperature Air Temperature (ATMP): 61.0 °F
5-day plot - Water Temperature Water Temperature (WTMP): 67.8 °F
5-day plot - Wind Speed at 10 Meters Wind Speed at 10 meters (WSPD10M): 3.9 kts
5-day plot - Wind Speed at 20 Meters Wind Speed at 20 meters (WSPD20M): 3.9 kts
5-day plot -  Wind Speed, Wind Gust and Atmospheric Pressure Combined plot of Wind Speed, Gust, and Air Pressure
NOS Water Level Observation Network Water Level
Previous observations
TIME
(EDT)
5-day plot - Wind Direction
WDIR
 
5-day plot - Wind Speed
WSPD
kts
5-day plot - Wind Gust
GST
kts
5-day plot - Wave Height
WVHT
ft
5-day plot - Dominant Wave Period
DPD
sec
5-day plot - Average Wave Period
APD
sec
5-day plot - Mean Wave Direction
MWD
 
5-day plot - Atmospheric Pressure
PRES
in
5-day plot - Pressure Tendency
PTDY
in
5-day plot - Air Temperature
ATMP
°F
5-day plot - Water Temperature
WTMP
°F
5-day plot - Dew Point
DEWP
°F
5-day plot - Salinity
SAL
psu
5-day plot - Visibility
VIS
nmi
5-day plot - Tide (above MLLW)
TIDE
ft
2024-05-21 03:42 amSSW 6.0 7.0----30.01- 60.6 67.8----
2024-05-21 03:36 am S 5.1 7.0----30.00- 61.0 67.8----
2024-05-21 03:30 am S 4.1 6.0----30.00- 61.2 67.8----
2024-05-21 03:24 amSSW 4.1 5.1----30.00- 61.3 67.8----
2024-05-21 03:18 amWSW 6.0 7.0----30.01- 61.7 67.8----
2024-05-21 03:12 amWSW 5.1 8.0----30.00- 61.9 67.8----
2024-05-21 03:06 amWSW 5.1 5.1----30.00- 62.1 67.8----
2024-05-21 03:00 amSSW 1.9 4.1----30.00-0.01 61.7 67.8----
2024-05-21 02:54 amWSW 2.9 4.1----30.00- 61.9 67.8----
2024-05-21 02:48 amWSW 2.9 5.1----30.00- 62.2 67.8----
2024-05-21 02:42 amSSW 2.9 4.1----30.00- 62.1 67.8----
2024-05-21 02:36 amWSW 2.9 7.0----30.01- 62.1 68.0----
2024-05-21 02:30 amWSW 6.0 8.0----30.01- 62.6 68.0----
2024-05-21 02:24 amWSW 6.0 8.9----30.01- 62.8 68.0----
2024-05-21 02:18 am SW 6.0 7.0----30.01- 62.8 68.0----
2024-05-21 02:12 am S 4.1 5.1----30.01- 62.6 68.0----
2024-05-21 02:06 amSSW 4.1 6.0----30.01- 62.2 68.0----
2024-05-21 02:00 amSSW 4.1 5.1----30.01-0.02 62.6 68.0----
2024-05-21 01:54 am S 5.1 5.1----30.01- 62.4 68.0----
2024-05-21 01:48 amSSE 4.1 6.0----30.01- 62.4 68.0----
2024-05-21 01:42 amSSE 5.1 7.0----30.01- 62.6 68.0----
2024-05-21 01:36 amSSE 5.1 6.0----30.00- 62.6 68.0----
2024-05-21 01:30 amSSE 5.1 7.0----30.00- 62.8 68.0----
2024-05-21 01:24 amSSE 6.0 7.0----30.00- 63.0 68.0----
2024-05-21 01:18 amSSE 4.1 5.1----30.00- 63.1 68.0----
2024-05-21 01:12 am S 4.1 5.1----30.00- 63.1 68.0----
2024-05-21 01:06 am S 4.1 5.1----30.00- 63.1 68.0----
2024-05-21 01:00 am S 5.1 5.1----30.00-0.01 63.1 67.8----
2024-05-21 12:54 am S 4.1 4.1----30.01- 63.3 67.8----
2024-05-21 12:48 am S 2.9 4.1----30.01- 63.3 67.8----
2024-05-21 12:42 am S 4.1 5.1----30.01- 63.3 67.6----
2024-05-21 12:36 am S 4.1 5.1----30.01- 63.5 67.6----
2024-05-21 12:30 am S 5.1 7.0----30.01- 63.5 67.6----
2024-05-21 12:24 am S 4.1 5.1----30.01- 63.5 67.8----
2024-05-21 12:18 am S 4.1 5.1----30.01- 63.7 67.8----
2024-05-21 12:12 am S 5.1 6.0----30.01- 63.7 67.8----
2024-05-21 12:06 am S 6.0 7.0----30.01- 63.5 67.8----
2024-05-21 12:00 am S 5.1 6.0----30.01- 63.7 67.8----
2024-05-20 11:54 pm S 5.1 6.0----30.01- 63.7 67.8----
2024-05-20 11:48 pmSSW 5.1 5.1----30.01- 63.7 68.0----
2024-05-20 11:42 pmSSW 5.1 5.1----30.01- 63.9 68.0----
2024-05-20 11:36 pmSSW 5.1 6.0----30.02- 64.0 68.0----
2024-05-20 11:30 pm S 5.1 6.0----30.02- 64.4 68.0----
2024-05-20 11:24 pm S 5.1 6.0----30.02- 64.6 68.0----
2024-05-20 11:18 pm S 6.0 8.0----30.02- 65.3 68.0----
2024-05-20 11:12 pmSSE 6.0 7.0----30.02- 65.8 68.2----
2024-05-20 11:06 pm SE 5.1 8.0----30.02- 66.0 68.2----
2024-05-20 11:00 pm SE 5.1 6.0----30.02+0.03 66.0 68.2----
2024-05-20 10:54 pm E 2.9 4.1----30.02- 65.7 68.2----
2024-05-20 10:48 pmESE 2.9 4.1----30.02- 66.2 68.2----
2024-05-20 10:42 pmESE 2.9 7.0----30.02- 66.0 68.4----
2024-05-20 10:36 pm E 4.1 6.0----30.02- 64.9 68.4----
2024-05-20 10:30 pm- 0.0 1.0----30.02- 65.3 68.5----
2024-05-20 10:24 pm- 0.0 0.0----30.02- 65.3 68.5----
2024-05-20 10:18 pm- 0.0 0.0----30.02- 65.1 68.5----
2024-05-20 10:12 pm- 0.0 1.0----30.02- 65.3 68.7----
2024-05-20 10:06 pm- 0.0 1.0----30.02- 65.3 68.7----
2024-05-20 10:00 pm SW 1.0 1.9----30.02+0.03 65.5 68.7----
2024-05-20 09:54 pm SW 1.0 1.9----30.02- 65.8 68.7----
2024-05-20 09:48 pm-------30.02-------
2024-05-20 09:42 pm- 0.0 1.9----30.02- 66.7 68.7----
2024-05-20 09:36 pm N 1.9 1.9----30.01- 66.7 68.7----
2024-05-20 09:30 pm N 1.0 1.9----30.01- 66.9 68.7----
2024-05-20 09:24 pm- 0.0 1.0----30.01- 66.7 68.7----
2024-05-20 09:18 pm- 0.0 1.9----30.01- 67.1 68.7----
2024-05-20 09:12 pm SW 1.0 1.9----30.01- 67.6 68.7----
2024-05-20 09:06 pmNNW 1.9 1.9----30.01- 68.0 68.7----
2024-05-20 09:00 pmNNW 1.0 1.9------ 68.0 68.7----
2024-05-20 08:54 pmNNW 1.9 2.9------ 68.2 68.5----
2024-05-20 08:48 pmNNW 1.9 2.9----30.00- 68.2 68.5----
2024-05-20 08:42 pmWNW 1.9 1.9----30.00- 68.4 68.7----
2024-05-20 08:36 pm W 2.9 2.9----30.00- 68.9 68.7----
2024-05-20 08:30 pmWNW 1.0 1.9----30.00- 69.3 68.7----
2024-05-20 08:24 pmNNW 1.0 1.9----30.00- 69.3 68.5----
2024-05-20 08:18 pmNNW 1.0 1.9----30.00- 68.9 68.5----
2024-05-20 08:12 pmNNE 1.0 1.0----30.00- 68.9 68.5----
2024-05-20 08:06 pm NE 1.0 1.0----29.99- 68.9 68.5----
2024-05-20 08:00 pm NE 1.0 1.9----29.99-0.02 68.7 68.5----
2024-05-20 07:54 pm NE 1.0 1.9----30.00- 69.4 68.5----
2024-05-20 07:48 pm NE 1.9 1.9----30.00- 69.4 68.5----
2024-05-20 07:42 pmNNE 1.0 1.0----30.00- 70.2 68.5----
2024-05-20 07:36 pm- 0.0 1.0----29.99- 71.2 68.5----
2024-05-20 07:30 pm- 0.0 1.0----29.99- 69.8 68.5----
2024-05-20 07:24 pmESE 1.0 1.0----29.99- 69.8 68.5----
2024-05-20 07:18 pmESE 1.0 1.0----29.99- 70.0 68.5----
2024-05-20 07:12 pm- 0.0 1.0----29.99- 69.6 68.5----
2024-05-20 07:06 pm E 1.0 1.9----29.99- 69.1 68.5----
2024-05-20 07:00 pmESE 1.9 2.9----29.99-0.03- 68.5----
2024-05-20 06:54 pmESE 2.9 4.1----29.99-- 68.5----
2024-05-20 06:48 pmESE 2.9 4.1----29.99-- 68.5----
2024-05-20 06:42 pmESE 4.1 4.1----29.99-- 68.5----
2024-05-20 06:36 pmESE 4.1 5.1----29.99-- 68.5----
2024-05-20 06:30 pmESE 5.1 5.1----29.99- 68.7 68.5----
2024-05-20 06:24 pmESE 4.1 5.1----29.99- 69.1 68.5----
2024-05-20 06:18 pm E 4.1 5.1----30.00- 69.3 68.5----
2024-05-20 06:12 pm E 5.1 6.0----30.00- 69.1 68.5----
2024-05-20 06:06 pm E 6.0 7.0----30.00- 68.5 68.5----
2024-05-20 06:00 pm E 7.0 7.0----30.00-0.04 68.4 68.7----
2024-05-20 05:54 pm E 7.0 7.0----30.00- 68.2 68.7----
2024-05-20 05:48 pmESE 7.0 7.0----30.00- 68.4 68.5----
2024-05-20 05:42 pm E 7.0 7.0----30.01- 68.7 68.5----
2024-05-20 05:36 pm E 7.0 7.0----30.01- 68.5 68.5----
2024-05-20 05:30 pm E 7.0 8.0----30.01- 68.5 68.5----
2024-05-20 05:24 pm E 8.0 8.9----30.01- 68.4 68.7----
2024-05-20 05:18 pm E 8.0 8.9----30.01- 68.5 68.5----
2024-05-20 05:12 pm E 8.0 8.9----30.01- 68.4 68.5----
2024-05-20 05:06 pm E 7.0 8.9----30.01- 68.5 68.5----
2024-05-20 05:00 pmESE 7.0 8.0----30.01-0.03 68.7 68.5----
2024-05-20 04:54 pmESE 7.0 8.0----30.01- 68.9 68.5----
2024-05-20 04:48 pm E 5.1 8.0----30.01- 69.4 68.5----
2024-05-20 04:42 pm SE 6.0 8.0----30.01- 68.7 68.5----
2024-05-20 04:36 pm E 7.0 8.0----30.01- 68.5 68.5----
2024-05-20 04:30 pm E 6.0 7.0----30.01-------
2024-05-20 04:24 pmESE 5.1 7.0----30.02-------
2024-05-20 04:18 pmESE 6.0 7.0----30.01- 68.2 68.5----
2024-05-20 04:12 pmESE 6.0 7.0----30.02- 68.2 68.5----
2024-05-20 04:06 pm E 8.0 8.0----30.02- 68.2 68.5----
2024-05-20 04:00 pmSSE 5.1 7.0----30.02-0.03 67.6 68.4----
2024-05-20 03:54 pmSSE 6.0 6.0----30.02- 67.6 68.4----
2024-05-20 03:48 pm SE 5.1 6.0----30.03- 67.6 68.4----
2024-05-20 03:42 pmESE 5.1 6.0----30.03- 67.6 68.4----
2024-05-20 03:36 pmSSE 5.1 7.0----30.03- 67.5 68.4----
2024-05-20 03:30 pm SE 5.1 7.0----30.03- 67.3 68.2----
2024-05-20 03:24 pmSSE 5.1 6.0----30.03- 67.1 68.2----
2024-05-20 03:18 pmSSE 5.1 5.1----30.03- 66.9 68.2----
2024-05-20 03:12 pm SE 5.1 6.0----30.03- 66.7 68.0----
2024-05-20 03:06 pmESE 6.0 6.0----30.03- 66.4 68.0----
2024-05-20 03:00 pmESE 6.0 6.0----30.03-0.03 66.4 68.0----
2024-05-20 02:54 pmESE 6.0 6.0----30.04- 66.4 68.0----
2024-05-20 02:48 pm E 6.0 7.0----30.04- 66.2 68.0----
2024-05-20 02:42 pm E 7.0 7.0----30.04- 66.0 67.8----
2024-05-20 02:36 pm E 6.0 8.0----30.04- 66.0 67.6----
2024-05-20 02:30 pm E 6.0 7.0----30.04- 66.0 67.6----
2024-05-20 02:24 pm E 7.0 8.0----30.04- 65.8 67.5----
2024-05-20 02:18 pm E 6.0 7.0----30.04- 65.5 67.5----
2024-05-20 02:12 pm E 7.0 7.0----30.04- 65.1 67.5----
2024-05-20 02:06 pmESE 5.1 6.0----30.05- 64.9 67.5----
2024-05-20 02:00 pmESE 6.0 7.0----30.04-0.03 64.4 67.3----
2024-05-20 01:54 pm E 7.0 8.0----30.04- 64.6 67.3----
2024-05-20 01:48 pmESE 6.0 8.0----30.04- 63.9 67.3----
2024-05-20 01:42 pmESE 6.0 7.0----30.04- 63.7 67.3----
2024-05-20 01:36 pmESE 6.0 7.0----30.04- 63.5 67.3----
2024-05-20 01:30 pmESE 7.0 7.0----30.04- 63.5 67.3----
2024-05-20 01:24 pmESE 6.0 7.0----30.05- 63.1 67.3----
2024-05-20 01:18 pmESE 5.1 7.0----30.05- 62.8 67.3----
2024-05-20 01:12 pm E 6.0 7.0----30.05- 62.6 67.3----
2024-05-20 01:06 pmESE 6.0 7.0----30.05- 62.4 67.1----
2024-05-20 01:00 pm E 7.0 7.0----30.05-0.02 62.4 67.1----
2024-05-20 12:54 pm E 7.0 8.0----30.06- 62.2 67.1----
2024-05-20 12:48 pm E 7.0 8.0----30.06- 62.2 67.1----
2024-05-20 12:42 pm E 7.0 8.0----30.06- 62.4 67.1----
2024-05-20 12:36 pm E 7.0 8.0----30.06- 62.6 67.1----
2024-05-20 12:30 pm E 6.0 8.0----30.06- 62.6 66.9----
2024-05-20 12:24 pm E 6.0 7.0----30.06- 62.4 66.9----
2024-05-20 12:18 pm E 5.1 5.1----30.06- 62.4 66.7----
2024-05-20 12:12 pm E 4.1 5.1----30.06- 62.4 66.7----
2024-05-20 12:06 pm E 5.1 6.0----30.07- 62.2 66.7----
2024-05-20 12:00 pmESE 5.1 5.1----30.06-0.03 62.1 66.7----
2024-05-20 11:54 amESE 4.1 5.1----30.06- 62.1 66.6----
2024-05-20 11:48 am E 2.9 5.1----30.07- 61.9 66.6----
2024-05-20 11:42 am E 4.1 5.1----30.07- 61.5 66.6----
2024-05-20 11:36 am E 5.1 6.0----30.07- 61.2 66.6----
2024-05-20 11:30 am E 5.1 7.0----30.07- 61.0 66.4----
2024-05-20 11:24 am E 6.0 7.0----30.07- 61.0 66.4----
2024-05-20 11:18 am E 6.0 6.0----30.07- 61.0 66.4----
2024-05-20 11:12 am E 5.1 6.0----30.07- 60.8 66.4----
2024-05-20 11:06 am E 5.1 6.0----30.07- 60.4 66.4----
2024-05-20 11:00 am E 5.1 5.1----30.07+0.00 60.6 66.4----
2024-05-20 10:54 am E 5.1 5.1----30.07- 60.6 66.4----
2024-05-20 10:48 am E 4.1 5.1----30.07- 60.6 66.4----
2024-05-20 10:42 amESE 5.1 6.0----30.07- 60.6 66.4----
2024-05-20 10:36 am SE 5.1 6.0----30.07- 60.6 66.4----
2024-05-20 10:30 am SE 4.1 5.1----30.07- 60.4 66.4----
2024-05-20 10:24 amESE 5.1 6.0----30.08- 60.4 66.4----
2024-05-20 10:18 am SE 4.1 4.1----30.08- 60.6 66.4----
2024-05-20 10:12 amESE 4.1 5.1----30.08- 60.4 66.4----
2024-05-20 10:06 amESE 4.1 5.1----30.08- 60.3 66.4----
2024-05-20 10:00 am SE 5.1 6.0----30.08+0.05 60.4 66.4----
2024-05-20 09:54 am E 2.9 4.1----30.08- 60.1 66.4----
2024-05-20 09:48 amESE 4.1 5.1----30.08- 59.9 66.4----
2024-05-20 09:42 amESE 4.1 4.1----30.08- 59.9 66.4----
2024-05-20 09:36 amESE 2.9 4.1----30.08- 59.7 66.4----
2024-05-20 09:30 amESE 4.1 5.1----30.08- 59.7 66.4----
2024-05-20 09:24 amESE 4.1 6.0----30.08- 59.7 66.4----
2024-05-20 09:18 am SE 4.1 5.1----30.09- 59.7 66.4----
2024-05-20 09:12 amESE 4.1 5.1----30.09- 59.5 66.4----
2024-05-20 09:06 amESE 4.1 5.1----30.09- 59.5 66.4----
2024-05-20 09:00 am E 4.1 5.1----30.09+0.08 59.5 66.4----
2024-05-20 08:54 am E 4.1 5.1----30.09- 59.4 66.4----
2024-05-20 08:48 amENE 4.1 6.0----30.09- 59.5 66.4----
2024-05-20 08:42 am E 5.1 7.0----30.08- 59.5 66.4----
2024-05-20 08:36 am E 5.1 6.0----30.08- 59.4 66.4----
2024-05-20 08:30 am E 5.1 6.0----30.08- 59.4 66.4----
2024-05-20 08:24 amENE 4.1 5.1----30.07- 59.4 66.4----
2024-05-20 08:18 amENE 4.1 5.1----30.07- 59.4 66.4----
2024-05-20 08:12 amENE 2.9 5.1----30.07- 59.4 66.4----
2024-05-20 08:06 am E 5.1 6.0----30.07- 59.2 66.4----
2024-05-20 08:00 am E 2.9 5.1----30.06+0.06 59.2 66.4----
2024-05-20 07:54 amENE 4.1 6.0----30.06- 59.2 66.4----
2024-05-20 07:48 amENE 5.1 7.0----30.06- 59.2 66.4----
2024-05-20 07:42 am E 6.0 8.0----30.06- 59.4 66.4----
2024-05-20 07:36 am E 6.0 7.0----30.05- 59.4 66.4----
2024-05-20 07:30 am E 7.0 8.0----30.05- 59.2 66.4----
2024-05-20 07:24 amENE 6.0 8.0----30.05- 59.4 66.4----
2024-05-20 07:18 amENE 6.0 8.0----30.04- 59.5 66.4----
2024-05-20 07:12 am E 5.1 7.0----30.03- 59.5 66.4----
2024-05-20 07:06 amESE 5.1 6.0----30.02- 59.4 66.4----
2024-05-20 07:00 am E 5.1 7.0----30.03+0.03 59.2 66.4----
2024-05-20 06:54 amESE 6.0 7.0----30.02- 59.2 66.4----
2024-05-20 06:48 amESE 5.1 7.0----30.02- 59.5 66.4----
2024-05-20 06:42 amESE 6.0 7.0----30.02- 59.4 66.4----
2024-05-20 06:36 amESE 5.1 6.0----30.02- 59.5 66.4----
2024-05-20 06:30 amESE 5.1 6.0----30.02- 59.4 66.4----
2024-05-20 06:24 am SE 5.1 6.0----30.02- 59.4 66.4----
2024-05-20 06:18 am SE 6.0 7.0----30.02- 59.4 66.4----
2024-05-20 06:12 am E 5.1 7.0----30.01- 59.7 66.4----
2024-05-20 06:06 amESE 6.0 8.0----30.01- 59.5 66.4----
2024-05-20 06:00 am E 7.0 8.0----30.01+0.01 59.5 66.4----
2024-05-20 05:54 am E 6.0 7.0----30.01- 59.5 66.4----
2024-05-20 05:48 amESE 6.0 7.0----30.01- 59.4 66.4----
2024-05-20 05:42 amESE 6.0 7.0----30.01- 59.4 66.4----
2024-05-20 05:36 am SE 5.1 6.0----30.01- 59.5 66.4----
2024-05-20 05:30 am SE 6.0 7.0----30.01- 59.4 66.4----
2024-05-20 05:24 am SE 6.0 8.9----30.00- 59.5 66.4----
2024-05-20 05:18 am SE 8.0 8.9----30.00- 59.5 66.4----
2024-05-20 05:12 amSSE 8.0 8.9----30.00- 59.5 66.4----
2024-05-20 05:06 am SE 6.0 7.0----30.00- 60.1 66.4----
2024-05-20 05:00 amESE 6.0 7.0----30.00-0.01 60.1 66.4----
2024-05-20 04:54 amESE 5.1 6.0----30.00- 60.1 66.4----
2024-05-20 04:48 amESE 6.0 8.0----30.00- 60.4 66.4----
2024-05-20 04:42 amESE 4.1 6.0----30.00- 60.3 66.4----
2024-05-20 04:36 am E 5.1 6.0----30.00- 60.4 66.4----
2024-05-20 04:30 am E 6.0 7.0----30.00- 60.4 66.4----
2024-05-20 04:24 amESE 6.0 7.0----30.00- 60.3 66.4----
2024-05-20 04:18 amESE 6.0 8.0----30.00- 60.4 66.4----
2024-05-20 04:12 amESE 7.0 8.0----30.00- 60.6 66.4----
2024-05-20 04:06 amESE 6.0 8.9----30.00- 60.8 66.4----
2024-05-20 04:00 am SE 6.0 8.0----30.00-0.01 61.0 66.4----
2024-05-20 03:54 am SE 6.0 7.0----30.00- 60.8 66.4----